Hornbeck, LA

9:46 AM CDT on September 25, 2016 (GMT -0500)
Fort Polk

Weather History for KAQV - August, 2013

Change the Weather History Date:

Thursday, August 1, 2013

  Actual Average (KPOE) Record (KPOE)
Temperature  
Mean Temperature 88 °F -  
Max Temperature 98 °F 91 °F 104 °F (1998)
Min Temperature 78 °F 71 °F 39 °F (2001)
Cooling Degree Days 23    
Growing Degree Days 38 (Base 50)    
Moisture  
Dew Point 73 °F    
Average Humidity 70    
Maximum Humidity 90    
Minimum Humidity 40    
Precipitation  
Precipitation 0.00 in - - ()
Sea Level Pressure  
Sea Level Pressure 29.96 in    
Wind  
Wind Speed 2 mph (North)    
Max Wind Speed 8 mph    
Max Gust Speed 16 mph    
Visibility 10 miles    
Events      
Averages and records for this station are not official NWS values.
T = Trace of Precipitation, MM = Missing Value Source: NWS Daily Summary

Daily Weather History Graph

Daily Weather History Graph

Search for Another Location

Airport or City:

Trip Planner

Search our weather history database for the weather conditions in past years. The results will help you decide how hot, cold, wet, or windy it might be!

Date:

Astronomy

Aug. 01, 2013 Rise Set
Actual Time 6:29 AM CDT 8:08 PM CDT
Civil Twilight 6:03 AM CDT 8:35 PM CDT
Nautical Twilight 5:31 AM CDT 9:06 PM CDT
Astronomical Twilight 4:58 AM CDT 9:39 PM CDT
Moon 2:08 AM CDT (8/1) 4:15 PM CDT (8/1)
Length of Visible Light 14h 31m
Length of Day
13h 38m
Waning Crescent, 23% of the Moon is Illuminated
Aug 1
Waning Crescent
Aug 6
New
Aug 14
First Quarter
Aug 20
Full
Aug 28
Last Quarter

Hourly Weather History & Observations

Time (CDT) Temp. Heat Index Dew Point Humidity Pressure Visibility Wind Dir Wind Speed Gust Speed Precip Events Conditions
12:56 AM 79.0 °F - 73.9 °F 84% 29.99 in 10.0 mi Variable 3.5 mph - N/A   Clear
1:56 AM 79.0 °F - 73.9 °F 84% 29.96 in 10.0 mi Calm Calm - N/A   Clear
2:56 AM 78.1 °F - 73.9 °F 87% 29.96 in 10.0 mi Calm Calm - N/A   Clear
3:56 AM 78.1 °F - 75.0 °F 90% 29.96 in 10.0 mi Variable 3.5 mph - N/A   Partly Cloudy
4:56 AM 78.1 °F - 75.0 °F 90% 29.97 in 10.0 mi Variable 3.5 mph - N/A   Overcast
5:56 AM 78.1 °F - 75.0 °F 90% 29.98 in 9.0 mi Calm Calm - N/A   Mostly Cloudy
6:56 AM 78.1 °F - 75.0 °F 90% 30.00 in 10.0 mi Calm Calm - N/A   Overcast
7:56 AM 79.0 °F - 73.9 °F 84% 30.01 in 10.0 mi Variable 3.5 mph - N/A   Mostly Cloudy
8:56 AM 84.0 °F 90.2 °F 73.0 °F 69% 30.01 in 10.0 mi Calm Calm - N/A   Clear
9:56 AM 86.0 °F 93.0 °F 73.0 °F 65% 30.01 in 10.0 mi Variable 4.6 mph - N/A   Scattered Clouds
10:56 AM 87.1 °F 93.6 °F 72.0 °F 61% 30.02 in 10.0 mi Variable 3.5 mph - N/A   Overcast
11:56 AM 91.0 °F 97.6 °F 71.1 °F 52% 30.00 in 10.0 mi Variable 4.6 mph - N/A   Clear
12:56 PM 95.0 °F 102.5 °F 71.1 °F 46% 29.99 in 10.0 mi NNE 5.8 mph - N/A   Clear
1:56 PM 97.0 °F 103.5 °F 70.0 °F 41% 29.96 in 10.0 mi Calm Calm - N/A   Scattered Clouds
2:56 PM 98.1 °F 105.0 °F 70.0 °F 40% 29.95 in 10.0 mi NNW 6.9 mph - N/A   Scattered Clouds
3:56 PM 98.1 °F 106.5 °F 71.1 °F 42% 29.93 in 10.0 mi Variable 6.9 mph - N/A   Scattered Clouds
4:56 PM 97.0 °F 103.5 °F 70.0 °F 41% 29.92 in 10.0 mi NNE 8.1 mph - N/A   Clear
5:56 PM 93.9 °F 104.0 °F 73.9 °F 52% 29.91 in 10.0 mi Variable 5.8 mph 16.1 mph N/A   Clear
6:56 PM 91.0 °F 99.3 °F 73.0 °F 55% 29.91 in 10.0 mi Calm Calm - N/A   Clear
7:56 PM 84.9 °F 93.3 °F 75.0 °F 72% 29.92 in 10.0 mi Calm Calm - N/A   Clear
8:56 PM 82.0 °F 88.6 °F 75.0 °F 79% 29.93 in 10.0 mi Calm Calm - N/A   Clear
9:56 PM 79.0 °F - 75.0 °F 88% 29.96 in 10.0 mi Calm Calm - N/A   Clear
10:56 PM 78.1 °F - 75.0 °F 90% 29.96 in 9.0 mi Calm Calm - N/A   Clear
11:56 PM 79.0 °F - 75.0 °F 88% 29.95 in 10.0 mi Calm Calm - N/A   Partly Cloudy